Emporia, KS

2:15 AM CDT on April 30, 2017 (GMT -0500)
Emporia Municipal

Weather History for KEMP - January, 2013

Change the Weather History Date:

Thursday, January 31, 2013

  Actual Average Record
Temperature  
Mean Temperature 17 °F 32 °F  
Max Temperature 26 °F 43 °F 69 °F (2009)
Min Temperature 8 °F 21 °F 8 °F (2013)
Degree Days  
Heating Degree Days 48 33  
Month to date heating degree days 961 1050  
Since 1 July heating degree days 2717 2988  
Cooling Degree Days 0 0  
Month to date cooling degree days 0 0  
Year to date cooling degree days 0 0  
Moisture  
Dew Point 11 °F    
Average Humidity 70    
Maximum Humidity 92    
Minimum Humidity 47    
Precipitation  
Precipitation 0.00 in 0.04 in 0.73 in (2015)
Month to date precipitation 0.49 0.63  
Year to date precipitation 0.49 0.63  
Sea Level Pressure  
Sea Level Pressure 30.25 in    
Wind  
Wind Speed 10 mph (NW)    
Max Wind Speed 24 mph    
Max Gust Speed 31 mph    
Visibility 10 miles    
Events      
T = Trace of Precipitation, MM = Missing Value Source: NWS Daily Summary

Daily Weather History Graph

Daily Weather History Graph

Search for Another Location

Airport or City:

Trip Planner

Search our weather history database for the weather conditions in past years. The results will help you decide how hot, cold, wet, or windy it might be!

Date:

Astronomy

Jan. 31, 2013 Rise Set
Actual Time 7:30 AM CST 5:46 PM CST
Civil Twilight 7:02 AM CST 6:14 PM CST
Nautical Twilight 6:30 AM CST 6:46 PM CST
Astronomical Twilight 5:59 AM CST 7:17 PM CST
Moon 10:44 PM CST (1/31) 9:35 AM CST (1/31)
Length of Visible Light 11h 11m
Length of Day
10h 16m
Waning Gibbous, 79% of the Moon is Illuminated
Jan 31
Waning Gibbous
Feb 3
Last Quarter
Feb 10
New
Feb 17
First Quarter
Feb 25
Full

Hourly Weather History & Observations

Time (CST) Temp. Windchill Dew Point Humidity Pressure Visibility Wind Dir Wind Speed Gust Speed Precip Events Conditions
12:53 AM 18.0 °F 7.7 °F 14.0 °F 84% 30.02 in 10.0 mi South 8.1 mph - N/A   Clear
1:53 AM 18.0 °F 7.7 °F 15.1 °F 88% 30.01 in 10.0 mi South 8.1 mph - N/A   Clear
2:53 AM 19.0 °F - 14.0 °F 81% 30.00 in 10.0 mi Calm Calm - N/A   Clear
3:53 AM 24.1 °F 17.0 °F 17.1 °F 75% 29.98 in 10.0 mi WSW 5.8 mph - N/A   Mostly Cloudy
4:53 AM 26.1 °F 18.4 °F 19.0 °F 75% 29.99 in 10.0 mi West 6.9 mph - N/A   Overcast
5:53 AM 26.1 °F 18.4 °F 19.0 °F 75% 29.99 in 10.0 mi West 6.9 mph - N/A   Mostly Cloudy
6:53 AM 25.0 °F 15.5 °F 19.0 °F 78% 30.04 in 10.0 mi NNW 9.2 mph - N/A   Mostly Cloudy
7:53 AM 24.1 °F 12.5 °F 18.0 °F 77% 30.09 in 8.0 mi North 12.7 mph - N/A   Overcast
8:53 AM 23.0 °F 11.7 °F 16.0 °F 74% 30.14 in 10.0 mi North 11.5 mph - N/A   Overcast
9:53 AM 23.0 °F 8.3 °F 15.1 °F 72% 30.17 in 10.0 mi North 19.6 mph 25.3 mph N/A   Mostly Cloudy
10:53 AM 21.9 °F 7.3 °F 14.0 °F 72% 30.25 in 10.0 mi NNW 18.4 mph 23.0 mph N/A   Overcast
11:53 AM 23.0 °F 10.1 °F 15.1 °F 72% 30.29 in 10.0 mi North 15.0 mph 20.7 mph N/A   Unknown
12:53 PM 21.0 °F 7.1 °F 12.0 °F 68% 30.32 in 10.0 mi North 16.1 mph 24.2 mph N/A   Overcast
2:53 PM 23.0 °F 8.0 °F 7.0 °F 50% 30.34 in 10.0 mi NW 20.7 mph 27.6 mph N/A   Clear
3:53 PM 21.9 °F 6.9 °F 5.0 °F 48% 30.36 in 10.0 mi NNW 19.6 mph 26.5 mph N/A   Clear
4:53 PM 19.0 °F 4.0 °F 3.9 °F 52% 30.39 in 10.0 mi NNW 17.3 mph - N/A   Clear
5:53 PM 16.0 °F 2.3 °F 3.0 °F 57% 30.41 in 10.0 mi NNW 12.7 mph - N/A   Clear
6:53 PM 15.1 °F 3.3 °F 3.0 °F 59% 30.45 in 10.0 mi NNW 9.2 mph - N/A   Clear
7:53 PM 12.0 °F 5.9 °F 3.9 °F 70% 30.48 in 10.0 mi NNW 3.5 mph - N/A   Clear
8:53 PM 10.0 °F 1.8 °F 3.9 °F 76% 30.53 in 10.0 mi West 4.6 mph - N/A   Clear
9:53 PM 10.9 °F - 3.0 °F 70% 30.52 in 10.0 mi Calm Calm - N/A   Clear
10:53 PM 10.0 °F - 3.0 °F 73% 30.53 in 10.0 mi Calm Calm - N/A   Clear
11:53 PM 10.9 °F - 6.1 °F 81% 30.52 in 10.0 mi Calm Calm - N/A   Clear